Starlink 4208

operational
NORAD ID: 52844 Int'l Des: 2022-062 Owner: SPXS Country: US Constellation: starlink
LEOCIRCULAR

关于 Starlink 4208

正在加载描述...

实时位置

正在加载3D地球...

即将过境

高度历史

Altitude vs Time

uPlot chart will show altitude changes over time

两行轨道根数

1 52844U 22062Q 25348.88186383 -.00005354 00000-0 -31854-3 0 9995
2 52844 53.2176 54.8380 0000724 101.2770 258.8304 15.08840715192986
Epoch: Dec 14, 2025 • Age: 24 hours

当前状态

高度 539.9 km
速度 7.59 km/s
星下点 16.09°N, 21.47°E
发射日期 Jun 17, 2022
运行时间 3.4 years
类型 internet

技术详情

分类 Payload
质量 297.00 kg
干质量 275.00 kg
总质量 297.00 kg
长度 0.20 m
直径 2.80 m
跨度 9.00 m
形状 Box + pan
制造商 SPXS
平台类型 Starlink
阶段状态 In Orbit
所有者/国家 SPXS/US

大型星座

Loading constellations...